K5AGY Weather Reports


Display with metric or nautical units.
time (UTC)temp
F
wind
direction
speed
MPH
gust
MPH
rain 1hr
in
rain 24hr
in
rain mn
in
humidity
%
barometer
mb
20260904173049 92 229 4.0 8.0 0.00 0.00 0.00 52 1013.9
20260904171543 91 159 4.0 9.0 0.00 0.00 0.00 55 1014.0
20260904170052 89 219 1.0 7.0 0.00 0.00 0.00 57 1014.2
20260904164521 89 146 3.0 8.0 0.00 0.00 0.00 58 1014.2
20260904163056 89 231 4.0 7.0 0.00 0.00 0.00 60 1014.1
20260904161527 88 206 5.0 9.0 0.00 0.00 0.00 60 1014.1
20260904160100 88 167 4.0 8.0 0.00 0.00 0.00 62 1014.0
20260904154538 87 184 3.0 7.0 0.00 0.00 0.00 66 1013.9
20260904153112 86 165 2.0 7.0 0.00 0.00 0.00 68 1013.7
20260904151533 85 160 2.0 7.0 0.00 0.00 0.00 70 1013.7
20260904150002 85 189 2.0 4.0 0.00 0.00 0.00 72 1013.6
20260904144532 84 238 1.0 4.0 0.00 0.00 0.00 75 1013.7
20260904143101 83 132 1.0 3.0 0.00 0.00 0.00 76 1013.6
20260904141532 83 108 2.0 6.0 0.00 0.00 0.00 78 1013.6
20260904140003 82 199 1.0 5.0 0.00 0.00 0.00 80 1013.5
20260904134545 81 146 2.0 3.0 0.00 0.00 0.00 82 1013.2
20260904133012 80 193 0.0 1.0 0.00 0.00 0.00 83 1013.3
20260904131545 79 129 0.0 0.0 0.00 0.00 0.00 84 1013.1
20260904130021 79 88 0.0 0.0 0.00 0.00 0.00 83 1013.1
20260904124556 78 89 0.0 0.0 0.00 0.00 0.00 83 1013.1
20260904123028 78 88 0.0 0.0 0.00 0.00 0.00 83 1013.0
20260904121600 78 88 0.0 0.0 0.00 0.00 0.00 82 1012.9
20260904120048 78 89 0.0 0.0 0.00 0.00 0.00 82 1012.8
20260904114509 79 88 0.0 0.0 0.00 0.00 0.00 82 1012.8
20260904113041 79 89 0.0 0.0 0.00 0.00 0.00 82 1012.6
20260904111516 79 88 0.0 0.0 0.00 0.00 0.00 82 1012.6
20260904110055 79 88 0.0 1.0 0.00 0.00 0.00 82 1012.6
20260904104534 79 98 0.0 1.0 0.00 0.00 0.00 82 1012.5
20260904103100 79 98 0.0 1.0 0.00 0.00 0.00 82 1012.3
20260904101540 79 104 0.0 1.0 0.00 0.00 0.00 82 1012.3
20260904100012 79 116 0.0 1.0 0.00 0.00 0.00 82 1012.2
20260904094557 79 117 0.0 1.0 0.00 0.00 0.00 81 1012.1
20260904093017 79 129 0.0 1.0 0.00 0.00 0.00 81 1011.9
20260904091552 79 129 0.0 0.0 0.00 0.00 0.00 81 1011.9
20260904090028 79 129 0.0 0.0 0.00 0.00 0.00 81 1011.8
20260904084601 79 129 0.0 1.0 0.00 0.00 0.00 80 1011.8
20260904083033 79 129 0.0 0.0 0.00 0.00 0.00 80 1011.9
20260904081507 79 129 0.0 0.0 0.00 0.00 0.00 80 1011.9
20260904080042 79 129 0.0 1.0 0.00 0.00 0.00 79 1011.9
20260904074513 80 129 0.0 1.0 0.00 0.00 0.00 79 1011.9
20260904073046 80 186 0.0 0.0 0.00 0.00 0.00 79 1012.1
20260904071520 80 187 0.0 0.0 0.00 0.00 0.00 78 1012.2
20260904070155 80 187 0.0 0.0 0.00 0.00 0.00 78 1012.3
20260904064526 81 187 0.0 2.0 0.00 0.00 0.00 78 1012.4
20260904063104 80 146 0.0 1.0 0.00 0.00 0.00 77 1012.4
20260904061531 81 125 0.0 2.0 0.00 0.00 0.00 77 1012.3
20260904060119 81 186 0.0 3.0 0.00 0.00 0.00 76 1012.4
20260904054528 81 127 0.0 4.0 0.00 0.00 0.00 75 1012.3
20260904053148 82 202 1.0 6.0 0.00 0.00 0.00 75 1012.4
20260904051536 82 119 1.0 8.0 0.00 0.00 0.00 74 1012.3
20260904050103 82 136 3.0 8.0 0.00 0.00 0.00 74 1012.1
20260904044531 82 124 3.0 7.0 0.00 0.00 0.00 73 1012.0
20260904043002 83 133 4.0 11.0 0.00 0.00 0.00 73 1012.0
20260904041535 83 133 4.0 10.0 0.00 0.00 0.00 72 1012.0
20260904040007 83 158 2.0 12.0 0.00 0.00 0.00 71 1012.0
20260904034539 83 147 4.0 12.0 0.00 0.00 0.00 70 1012.0
20260904033011 84 143 4.0 13.0 0.00 0.00 0.00 69 1011.8
20260904031540 84 115 5.0 13.0 0.00 0.00 0.00 69 1011.9
20260904030011 84 208 6.0 13.0 0.00 0.00 0.00 68 1011.8
20260904024547 84 185 7.0 15.0 0.00 0.00 0.00 67 1011.6
20260904023017 84 119 5.0 11.0 0.00 0.00 0.00 65 1011.5
20260904021547 84 113 4.0 10.0 0.00 0.00 0.00 65 1011.4
20260904020019 85 79 5.0 11.0 0.00 0.00 0.00 64 1011.1
20260904014603 85 85 6.0 11.0 0.00 0.00 0.00 62 1011.0
20260904013021 86 67 6.0 12.0 0.00 0.00 0.00 61 1010.7
20260904011553 87 96 7.0 12.0 0.00 0.00 0.00 59 1010.4
20260904010023 87 103 5.0 16.0 0.00 0.00 0.00 58 1010.2
20260904004558 88 95 6.0 13.0 0.00 0.00 0.00 57 1010.3
20260904003027 88 62 9.0 19.0 0.00 0.00 0.00 55 1010.2
20260904001608 89 98 9.0 20.0 0.00 0.00 0.00 55 1010.2
20260904000033 89 76 8.0 15.0 0.00 0.00 0.00 55 1009.9
20260903234502 89 89 8.0 18.0 0.00 0.00 0.00 55 1009.9
20260903233048 90 104 10.0 20.0 0.00 0.00 0.00 54 1009.8
20260903231506 91 124 9.0 16.0 0.00 0.00 0.00 53 1009.8
20260903224510 90 79 8.0 17.0 0.00 0.00 0.00 53 1009.8
20260903223107 90 65 9.0 19.0 0.00 0.00 0.00 52 1009.7
20260903221513 91 103 8.0 18.0 0.00 0.00 0.00 53 1009.5
20260903220045 95 68 12.0 22.0 0.00 0.00 0.00 45 1009.3
20260903214516 100 70 5.0 12.0 0.00 0.00 0.00 34 1009.0
20260903213104 101 96 7.0 13.0 0.00 0.00 0.00 32 1009.1
20260903211518 101 129 4.0 11.0 0.00 0.00 0.00 31 1009.3
20260903210112 102 58 4.0 12.0 0.00 0.00 0.00 31 1009.4
20260903204520 102 109 5.0 12.0 0.00 0.00 0.00 32 1009.6
20260903203052 103 128 3.0 10.0 0.00 0.00 0.00 32 1009.8
20260903201522 101 114 5.0 13.0 0.00 0.00 0.00 34 1010.1
20260903200052 102 121 3.0 11.0 0.00 0.00 0.00 33 1010.3
20260903194533 102 214 2.0 9.0 0.00 0.00 0.00 34 1010.3
20260903193052 101 213 4.0 9.0 0.00 0.00 0.00 36 1010.5
20260903191527 100 255 3.0 9.0 0.00 0.00 0.00 36 1010.6
20260903184529 99 140 2.0 10.0 0.00 0.00 0.00 37 1011.1
20260903183110 99 108 2.0 7.0 0.00 0.00 0.00 38 1011.2
20260903181529 99 294 4.0 12.0 0.00 0.00 0.00 38 1011.5
20260903180101 98 229 2.0 10.0 0.00 0.00 0.00 41 1011.9
20260903174526 97 187 4.0 12.0 0.00 0.00 0.00 44 1012.1